Wind_Speed
26 25 25 24 25 25 26 25 24 24 24 24 25 25 25 25 25 24 24 24 24 24 24 24 24 23 23 23 23 23 23 23 23 23 23 24 23 23 23 23 24 24 23
27 27 26 26 26 27 27 26 26 25 25 26 26 26 26 26 26 27 25 25 25 25 26 25 24 24 24 24 24 24 24 24 24 25 25 25 25 24 23 24 25 25 25
28 28 28 28 28 28 28 28 27 27 27 26 26 26 26 26 27 27 26 25 26 26 26 26 25 25 25 25 25 25 25 25 25 25 25 26 27 26 25 24 25 25 26
29 29 28 28 29 29 29 28 27 28 28 27 27 28 27 27 26 26 27 27 26 26 26 26 26 26 26 26 26 26 26 26 25 26 26 26 27 28 27 26 25 26 26
30 29 29 29 29 29 28 28 27 28 29 28 28 28 27 27 26 27 28 28 27 27 27 26 26 26 26 26 27 27 27 27 26 26 26 26 27 28 28 28 27 27 27
30 30 30 30 29 29 29 28 28 28 28 28 29 28 27 27 27 26 27 27 27 28 27 27 27 27 27 27 27 27 27 28 27 27 27 27 27 28 28 29 30 29 29
31 30 30 30 29 29 29 29 29 29 28 28 29 29 29 28 28 28 28 27 27 27 27 27 27 27 28 28 27 28 28 29 29 28 27 27 27 28 29 29 30 30 30
31 31 31 30 29 29 28 29 29 29 29 29 30 30 29 28 28 29 29 29 29 28 28 28 27 28 28 28 28 28 28 28 29 29 28 29 28 28 28 29 29 30 30
31 30 30 29 28 28 28 29 29 29 29 29 30 30 30 29 29 29 30 30 29 28 28 28 28 28 28 28 28 28 27 27 29 29 29 29 29 29 29 28 28 29 30
30 29 29 28 28 28 28 28 29 29 29 28 29 29 29 29 29 29 29 29 29 29 28 28 29 29 29 28 28 27 27 28 28 29 29 29 29 29 29 29 29 29 30
27 27 26 27 27 26 27 27 28 28 27 27 27 28 28 28 28 28 27 28 28 28 27 28 28 28 28 28 28 27 28 29 29 29 29 30 30 30 29 30 30 30 30
26 25 25 25 25 25 25 26 27 26 26 26 26 27 27 27 27 26 26 26 27 26 27 27 27 27 28 28 27 27 28 29 30 30 31 30 30 31 30 30 30 30 31
25 25 24 24 24 24 25 26 26 25 24 24 25 26 26 26 26 26 26 25 25 25 25 26 27 27 27 27 27 27 28 29 29 29 30 30 30 30 31 31 31 31 31
24 24 23 23 23 23 24 24 24 23 23 24 25 26 27 26 26 26 25 25 25 24 24 23 25 26 27 27 27 27 28 29 29 29 30 30 31 31 31 31 31 31 32
24 23 23 23 23 22 23 23 23 22 22 22 23 24 24 25 25 25 25 26 26 25 24 23 24 25 26 26 27 28 29 29 29 30 30 30 30 31 31 32 32 32 32
22 22 21 21 21 21 22 22 22 22 22 22 22 22 23 23 23 24 24 25 26 25 24 24 25 25 25 26 27 29 29 30 30 29 30 30 31 31 31 32 32 33 33
21 21 19 19 19 20 20 21 21 21 20 20 20 21 21 22 22 23 24 24 25 25 25 24 25 27 26 26 27 28 29 29 30 30 30 30 30 31 31 32 33 34 34
20 19 18 18 18 19 19 19 19 19 19 19 19 20 20 21 21 22 22 24 25 24 24 25 26 27 27 27 27 27 28 29 29 29 30 30 30 31 32 33 34 34 34
18 18 18 18 18 19 19 18 18 18 18 18 18 18 19 20 22 22 22 23 23 23 23 23 24 25 25 26 26 26 26 27 28 29 29 30 31 32 33 34 34 34 35
17 18 18 18 18 18 18 17 17 17 17 16 16 17 19 20 21 21 22 22 23 23 24 24 24 24 25 26 26 26 26 27 27 29 30 30 31 32 33 34 35 35 35
17 18 17 17 17 17 18 17 16 16 16 16 16 17 18 19 20 20 21 22 23 23 24 23 23 24 24 25 25 26 27 27 28 28 28 29 30 31 32 32 33 34 35
17 17 17 17 16 17 17 17 16 16 17 18 18 18 19 19 19 20 20 21 21 22 23 24 24 24 24 24 24 25 26 26 27 28 28 29 30 30 31 32 33 33 33
16 16 16 15 15 16 16 16 16 16 17 18 19 20 20 19 19 20 21 21 21 21 22 23 23 23 23 24 24 24 25 25 26 27 28 28 29 30 31 32 32 32 32
14 14 15 15 14 14 15 15 16 16 17 18 19 19 20 20 21 21 21 21 20 20 20 20 20 21 22 23 23 23 23 25 25 26 27 28 29 29 30 30 31 31 31
14 14 14 15 14 14 15 16 16 16 17 18 19 19 19 20 19 19 19 18 18 18 18 18 19 19 20 21 21 22 22 24 24 25 26 26 26 27 27 28 29 31 31
13 13 14 15 15 15 15 16 17 17 18 18 19 19 19 19 18 18 17 17 16 16 16 16 18 19 20 20 21 22 22 23 23 23 24 25 26 26 26 27 28 29 30
Wind_Direction
296 294 289 288 286 284 282 280 277 277 276 273 272 270 269 270 269 268 266 265 264 264 263 264 264 262 262 262 260 257 254 253 252 251 250 248 248 247 246 245 243 242 241
297 294 290 290 290 287 285 282 277 277 278 276 272 271 269 268 268 268 268 267 265 264 264 263 263 261 261 261 259 257 255 253 253 252 252 251 248 248 247 246 244 242 241
296 294 291 291 290 287 285 282 278 277 278 278 276 273 270 268 269 268 268 268 266 264 263 262 262 262 263 261 261 257 255 253 253 253 254 252 248 248 247 246 244 243 242
295 294 293 292 290 289 288 285 281 279 279 277 276 274 271 270 269 268 270 269 268 265 262 261 261 261 262 261 260 257 255 254 254 255 255 253 250 249 247 245 244 244 243
295 295 295 293 290 290 289 285 281 281 278 277 276 274 270 270 271 270 270 270 268 264 263 262 262 260 260 261 259 258 256 254 253 254 255 255 253 250 247 245 245 245 244
295 295 295 292 289 287 287 286 282 280 279 278 277 273 271 271 272 270 270 270 267 265 263 262 261 260 259 259 259 258 257 255 253 254 255 255 254 250 248 247 246 247 247
294 294 294 293 291 290 289 286 283 280 279 277 276 275 272 273 273 271 271 271 269 266 263 262 260 260 260 260 259 257 257 255 254 253 253 253 252 251 250 247 247 247 246
294 294 293 292 292 291 290 289 286 282 278 276 275 275 274 272 273 271 271 270 268 265 264 264 262 261 260 259 259 258 258 255 253 252 251 251 251 251 250 249 247 246 246
296 296 295 293 292 291 292 290 287 284 280 277 275 275 273 271 271 270 271 269 268 266 265 264 263 262 260 259 257 257 258 257 255 254 253 252 251 251 251 250 248 247 247
296 296 295 292 291 292 293 291 288 284 281 278 275 274 273 273 273 271 270 269 267 266 266 265 263 262 262 260 257 256 257 256 257 255 254 252 251 251 251 250 249 248 248
297 296 295 294 293 292 294 293 291 286 282 279 276 274 272 272 273 271 270 269 267 265 265 265 263 261 259 259 258 257 256 256 256 255 254 254 253 252 251 250 249 249 249
298 296 295 295 293 292 293 293 292 288 284 282 279 277 274 273 273 272 272 271 267 265 265 264 262 261 260 259 259 257 256 255 255 254 253 253 252 252 251 250 250 250 250
299 298 297 294 293 292 292 292 292 289 285 281 278 277 276 272 273 273 273 272 269 267 267 266 263 262 261 259 259 258 257 256 255 253 252 252 251 251 250 251 251 251 251
299 298 297 295 294 294 294 294 293 290 286 281 278 277 276 274 272 272 272 270 269 267 267 267 265 263 260 259 260 258 258 257 255 252 252 251 251 251 250 251 251 250 251
300 298 297 295 295 295 295 293 292 291 289 286 280 278 276 274 272 270 270 269 268 266 265 265 265 266 263 260 259 259 257 257 256 255 253 252 252 252 252 252 252 252 251
300 299 298 295 294 296 297 294 293 293 290 287 284 281 279 278 274 271 271 269 268 267 265 265 266 267 267 265 262 259 257 256 256 255 254 253 253 253 253 253 253 253 253
301 302 300 299 297 298 299 297 295 295 292 289 288 284 281 279 276 273 273 272 271 270 268 266 267 266 269 267 264 260 257 257 257 256 256 255 255 255 255 255 255 254 254
301 301 301 301 300 302 302 301 297 295 296 294 291 286 284 282 278 277 276 275 274 271 269 268 267 267 268 267 265 263 259 256 257 258 257 256 256 257 257 257 255 253 253
299 300 301 300 301 304 303 300 299 298 299 295 293 290 286 283 280 278 277 277 275 272 271 269 268 268 267 266 264 263 261 260 259 260 259 259 259 258 258 257 255 254 253
300 300 300 301 301 303 305 300 298 300 300 299 297 293 290 287 284 280 280 280 277 273 272 272 270 268 266 265 264 263 261 262 262 261 262 263 262 261 260 256 255 255 254
301 300 300 300 302 303 304 304 300 299 300 302 303 299 295 293 289 287 286 283 279 276 273 274 272 269 267 264 264 263 263 262 262 263 263 263 262 263 261 259 257 257 256
301 301 301 302 304 304 304 303 305 306 304 302 301 302 302 299 296 292 289 288 285 279 275 276 275 272 271 270 267 266 265 263 263 263 263 263 264 263 262 260 259 259 258
309 307 307 305 307 310 306 304 304 301 300 300 300 303 304 300 300 296 292 290 287 284 279 279 276 273 271 270 269 269 268 266 265 266 267 266 265 263 263 261 259 258 257
316 314 312 309 309 313 313 312 309 303 302 302 304 306 304 300 299 297 295 294 291 288 284 281 277 275 273 270 269 268 268 269 268 267 268 267 265 264 264 262 259 257 257
315 316 319 314 312 315 319 313 315 313 310 307 308 310 311 308 305 302 300 298 296 293 287 283 279 277 276 273 270 269 272 273 272 271 270 269 266 265 264 262 260 258 258
318 319 321 320 318 318 319 320 317 316 316 313 312 315 316 315 311 306 301 299 297 296 290 285 283 280 280 278 275 274 274 275 274 273 272 271 270 267 265 264 262 261 259
Height
5830 5828 5828 5827 5827 5826 5825 5824 5823 5823 5823 5823 5823 5824 5824 5824 5824 5824 5825 5826 5825 5826 5827 5828 5829 5829 5830 5831 5832 5832 5834 5835 5836 5838 5839 5841 5842 5844 5845 5847 5848 5850 5852
5825 5823 5822 5822 5821 5820 5819 5818 5817 5817 5817 5817 5817 5817 5818 5818 5818 5818 5819 5820 5820 5821 5821 5822 5823 5824 5824 5825 5826 5827 5828 5829 5831 5832 5834 5836 5837 5839 5840 5842 5843 5845 5847
5820 5818 5817 5816 5815 5813 5812 5811 5811 5810 5811 5811 5810 5811 5811 5812 5812 5812 5812 5813 5814 5814 5815 5816 5816 5817 5818 5819 5820 5821 5822 5823 5825 5826 5828 5829 5831 5833 5835 5836 5838 5840 5842
5814 5812 5811 5810 5808 5807 5806 5805 5804 5804 5804 5804 5804 5804 5804 5805 5805 5805 5806 5807 5807 5808 5809 5809 5810 5810 5812 5813 5814 5815 5816 5817 5818 5820 5822 5823 5825 5827 5829 5831 5833 5834 5836
5808 5806 5805 5803 5802 5800 5799 5798 5798 5798 5797 5797 5796 5797 5797 5798 5798 5799 5799 5799 5800 5801 5801 5802 5802 5803 5805 5806 5807 5808 5809 5811 5812 5813 5815 5817 5819 5820 5822 5825 5827 5829 5831
5802 5800 5798 5796 5795 5794 5793 5792 5791 5790 5790 5789 5789 5790 5790 5790 5791 5791 5791 5792 5792 5793 5793 5795 5795 5796 5798 5799 5800 5801 5802 5804 5805 5807 5808 5810 5812 5814 5816 5818 5820 5822 5824
5795 5793 5791 5790 5788 5787 5786 5784 5783 5783 5782 5782 5782 5782 5783 5783 5783 5784 5784 5784 5785 5785 5786 5787 5788 5789 5791 5791 5792 5793 5795 5796 5798 5800 5801 5803 5805 5807 5809 5811 5813 5815 5818
5788 5786 5785 5783 5781 5780 5778 5778 5776 5776 5775 5775 5775 5774 5775 5776 5775 5776 5776 5777 5777 5778 5779 5780 5781 5782 5783 5784 5785 5786 5787 5789 5790 5792 5794 5796 5798 5800 5802 5804 5806 5808 5811
5781 5779 5777 5776 5774 5773 5772 5770 5769 5769 5768 5767 5767 5767 5767 5767 5768 5768 5768 5768 5769 5770 5771 5771 5773 5774 5775 5776 5777 5779 5780 5781 5783 5785 5786 5788 5790 5793 5795 5797 5799 5801 5804
5773 5771 5770 5769 5767 5766 5764 5763 5762 5761 5760 5760 5759 5759 5759 5759 5759 5760 5760 5760 5761 5762 5762 5763 5764 5766 5767 5768 5770 5771 5772 5774 5775 5777 5779 5781 5783 5785 5787 5790 5792 5794 5796
5766 5764 5763 5761 5760 5759 5757 5756 5755 5753 5753 5752 5752 5751 5751 5751 5751 5751 5752 5752 5752 5753 5754 5755 5756 5757 5759 5760 5761 5763 5764 5766 5768 5769 5771 5773 5775 5777 5780 5782 5784 5787 5789
5760 5758 5757 5755 5754 5752 5751 5750 5748 5746 5745 5745 5744 5744 5744 5744 5744 5744 5744 5744 5745 5745 5746 5747 5748 5749 5750 5752 5753 5754 5756 5757 5759 5761 5763 5765 5767 5770 5772 5774 5777 5779 5781
5754 5752 5751 5749 5748 5746 5745 5743 5742 5740 5739 5738 5737 5737 5736 5736 5737 5737 5737 5737 5738 5738 5739 5740 5740 5741 5743 5744 5745 5747 5748 5749 5750 5752 5755 5757 5759 5762 5764 5766 5769 5771 5773
5749 5747 5745 5743 5742 5741 5739 5737 5736 5734 5732 5731 5731 5730 5730 5730 5730 5730 5730 5730 5731 5731 5732 5732 5733 5734 5735 5736 5737 5739 5740 5741 5742 5744 5746 5749 5751 5754 5756 5758 5761 5763 5765
5744 5741 5740 5738 5737 5735 5733 5732 5730 5728 5727 5725 5725 5724 5723 5723 5723 5723 5723 5723 5724 5725 5725 5726 5726 5727 5727 5728 5729 5731 5732 5734 5735 5736 5738 5740 5743 5745 5747 5750 5752 5754 5757
5738 5736 5734 5732 5731 5730 5728 5726 5724 5723 5721 5720 5719 5718 5717 5717 5717 5717 5717 5717 5717 5718 5718 5719 5719 5719 5720 5720 5721 5722 5724 5725 5727 5728 5730 5732 5734 5737 5739 5741 5743 5746 5748
5734 5731 5729 5728 5726 5725 5723 5721 5719 5718 5716 5714 5713 5712 5711 5711 5711 5711 5711 5711 5711 5711 5712 5712 5712 5712 5712 5713 5713 5714 5715 5717 5719 5720 5722 5724 5726 5728 5730 5732 5734 5736 5738
5729 5727 5725 5724 5722 5720 5718 5716 5715 5713 5711 5709 5708 5707 5706 5705 5705 5705 5705 5705 5704 5704 5705 5705 5705 5705 5705 5705 5706 5706 5708 5709 5711 5712 5714 5716 5717 5719 5721 5723 5725 5727 5729
5725 5723 5721 5720 5718 5716 5714 5712 5710 5708 5706 5705 5703 5702 5701 5701 5700 5699 5699 5698 5698 5697 5697 5698 5698 5698 5698 5698 5698 5699 5700 5701 5702 5704 5705 5707 5709 5710 5712 5713 5715 5717 5719
5720 5719 5717 5715 5713 5711 5709 5707 5706 5704 5702 5701 5699 5698 5696 5695 5694 5693 5692 5691 5691 5691 5691 5690 5691 5690 5690 5690 5691 5691 5693 5693 5695 5696 5697 5698 5700 5701 5702 5704 5706 5707 5709
5716 5714 5713 5711 5709 5707 5705 5703 5702 5700 5699 5697 5695 5694 5692 5691 5689 5688 5687 5686 5685 5684 5684 5684 5683 5683 5683 5683 5683 5684 5685 5686 5687 5688 5689 5690 5691 5692 5693 5694 5696 5697 5699
5712 5710 5708 5706 5704 5703 5701 5699 5698 5696 5694 5693 5692 5690 5688 5686 5684 5683 5682 5680 5679 5678 5677 5677 5677 5676 5676 5676 5676 5676 5677 5678 5679 5680 5680 5681 5682 5683 5683 5685 5686 5687 5689
5707 5706 5704 5702 5700 5698 5697 5695 5694 5692 5691 5690 5688 5686 5684 5682 5680 5678 5676 5675 5673 5672 5671 5670 5670 5669 5669 5669 5669 5669 5670 5670 5671 5671 5672 5673 5673 5674 5674 5675 5676 5678 5679
5703 5702 5701 5699 5697 5695 5694 5692 5690 5688 5686 5685 5684 5681 5679 5677 5675 5673 5671 5669 5667 5666 5665 5664 5663 5663 5662 5662 5662 5662 5662 5663 5663 5663 5663 5664 5664 5665 5665 5666 5667 5668 5669
5701 5699 5698 5696 5694 5693 5691 5689 5687 5685 5683 5681 5679 5677 5674 5672 5670 5668 5666 5664 5662 5661 5659 5658 5658 5657 5656 5656 5656 5656 5655 5656 5656 5656 5655 5656 5656 5656 5657 5657 5658 5659 5660
5699 5697 5696 5694 5692 5690 5688 5686 5684 5682 5680 5677 5675 5673 5670 5668 5665 5663 5661 5659 5657 5656 5655 5654 5653 5652 5651 5650 5649 5649 5649 5649 5648 5648 5648 5648 5648 5648 5648 5649 5649 5649 5650